TimePST,TemperatureF,Dew PointF,Humidity,Sea Level PressureIn,VisibilityMPH,Wind Direction,Wind SpeedMPH,Gust SpeedMPH,PrecipitationIn,Events,Conditions,WindDirDegrees,DateUTC
12:56 AM,51.1,43.0,74,30.04,10.0,SSE,6.9,-,0.03,Rain,Rain,160,2013-01-07 08:56:00
1:56 AM,48.9,44.1,83,30.03,10.0,West,9.2,-,0.02,Rain,Light Rain,280,2013-01-07 09:56:00
2:56 AM,48.0,44.1,86,30.01,10.0,WSW,10.4,-,0.02,,Overcast,250,2013-01-07 10:56:00
3:56 AM,48.0,43.0,83,30.01,10.0,WNW,12.7,-,N/A,,Mostly Cloudy,290,2013-01-07 11:56:00
4:56 AM,46.9,44.1,90,30.02,10.0,West,6.9,-,N/A,,Mostly Cloudy,260,2013-01-07 12:56:00
5:56 AM,46.0,43.0,89,30.03,10.0,West,6.9,-,N/A,,Mostly Cloudy,260,2013-01-07 13:56:00
6:56 AM,46.0,43.0,89,30.05,10.0,West,6.9,-,N/A,,Mostly Cloudy,260,2013-01-07 14:56:00
7:56 AM,46.9,43.0,86,30.06,10.0,WNW,8.1,-,N/A,,Scattered Clouds,290,2013-01-07 15:56:00
8:56 AM,54.0,41.0,62,30.08,10.0,NW,10.4,-,N/A,,Partly Cloudy,310,2013-01-07 16:56:00
9:56 AM,59.0,36.0,42,30.08,10.0,North,17.3,-,N/A,,Partly Cloudy,350,2013-01-07 17:56:00
10:56 AM,61.0,30.0,31,30.06,10.0,NNW,21.9,28.8,N/A,,Partly Cloudy,340,2013-01-07 18:56:00
11:56 AM,63.0,28.0,27,30.04,10.0,NNW,19.6,26.5,N/A,,Clear,340,2013-01-07 19:56:00
12:56 PM,64.9,27.0,24,30.01,10.0,NNW,17.3,29.9,N/A,,Clear,330,2013-01-07 20:56:00
1:56 PM,66.0,25.0,21,30.00,10.0,NNW,16.1,-,N/A,,Clear,340,2013-01-07 21:56:00
2:56 PM,66.9,24.1,20,29.99,10.0,NNW,12.7,-,N/A,,Clear,340,2013-01-07 22:56:00
3:56 PM,66.0,26.1,22,30.00,10.0,NNW,10.4,-,N/A,,Clear,340,2013-01-07 23:56:00
4:56 PM,60.1,28.9,31,30.00,10.0,NNW,9.2,-,N/A,,Clear,330,2013-01-08 00:56:00
5:56 PM,57.9,28.0,32,30.01,10.0,NW,8.1,-,N/A,,Clear,320,2013-01-08 01:56:00
6:56 PM,55.0,27.0,34,30.02,10.0,West,6.9,-,N/A,,Clear,270,2013-01-08 02:56:00
7:56 PM,54.0,26.1,34,30.02,10.0,NW,10.4,-,N/A,,Clear,310,2013-01-08 03:56:00
8:56 PM,46.9,28.0,48,30.02,10.0,WNW,9.2,-,N/A,,Clear,290,2013-01-08 04:56:00
9:56 PM,45.0,28.9,53,30.03,10.0,West,11.5,-,N/A,,Clear,280,2013-01-08 05:56:00
10:56 PM,45.0,28.9,53,30.02,-9999.0,West,10.4,-,N/A,,Clear,270,2013-01-08 06:56:00
11:56 PM,43.0,28.0,56,30.01,-9999.0,West,11.5,-,N/A,,Clear,270,2013-01-08 07:56:00